STARLINK-4401 (53483 NORAD) Tracking and Keplerian Element Data

This shows tracking and keplerian element data for the satellite.

Feedback or suggestion? Click here.




ElementValue
Catalog53483
NameSTARLINK-4401
Epoch Orbit1521
Epoch Day324.82335805
Epoch Year2022
RAAN83.8896
Inclination97.6595
Eccentricity0.0002401
Argument of Perigee359.752
Mean Anonmoly0.3703
Mean Motion15.01268034
Decay Rate1.511E-05
L11 53483U 22099U 22324.82335805 .00001511 00000+0 12220-3 0 9999
L22 53483 97.6595 83.8896 0002401 359.7520 0.3703 15.01268034 15218



Live tracking and technical data element details for STARLINK-4401 (NORAD 53483). STARLINK-4401 can be tracked NOW for your location showing map with azimuth and elevation plus other details from your city location.







IsCatalogInMostPopularTable: catalog: 53483, numindb: 6
Update: records affected: 1



GetName: 53483 STARLINK-4401

Hit Count: updated at: Tue, 29 Nov 2022 00:32:21 GMT